This is the latest recevied weather packets stored in our database for station/object IU1DOF-3. If no packets are shown the sender has not sent any weather packets the latest 10 day(s).
| Time | Temp. | Humidity | Pressure | Rain* | Wind** | Luminosity | Snow |
|---|---|---|---|---|---|---|---|
| 1777248651 | 11.11° C | 88% | 1017.3 hPa | 0 mm | - | - | - |
| 1777245019 | 11.67° C | 86% | 1017.5 hPa | 0 mm | - | - | - |
| 1777244198 | 12.22° C | 85% | 1017.4 hPa | 0 mm | - | - | - |
| 1777240782 | 12.78° C | 83% | 1017.3 hPa | 0 mm | - | - | - |
| 1777240166 | 12.78° C | 83% | 1017.3 hPa | 0 mm | - | - | - |
| 1777239542 | 12.78° C | 82% | 1017.3 hPa | 0 mm | - | - | - |
| 1777238918 | 12.78° C | 82% | 1017.3 hPa | 0 mm | - | - | - |
| 1777238294 | 13.33° C | 81% | 1017.4 hPa | 0 mm | - | - | - |
| 1777237670 | 13.33° C | 81% | 1017.1 hPa | 0 mm | - | - | - |
| 1777237061 | 13.89° C | 80% | 1017.2 hPa | 0 mm | - | - | - |
| 1777236439 | 13.33° C | 81% | 1017.1 hPa | 0 mm | - | - | - |
| 1777235814 | 13.89° C | 80% | 1017 hPa | 0 mm | - | - | - |
| 1777235201 | 14.44° C | 78% | 1017.1 hPa | 0 mm | - | - | - |
| 1777234582 | 14.44° C | 78% | 1016.8 hPa | 0 mm | - | - | - |
| 1777233957 | 15° C | 78% | 1016.9 hPa | 0 mm | - | - | - |
| 1777233341 | 15.56° C | 78% | 1016.7 hPa | 0 mm | - | - | - |
| 1777232726 | 15.56° C | 74% | 1016.7 hPa | 0 mm | - | - | - |
| 1777232102 | 15.56° C | 76% | 1016.6 hPa | 0 mm | - | - | - |
| 1777231481 | 15.56° C | 75% | 1016.7 hPa | 0 mm | - | - | - |
| 1777230870 | 15.56° C | 74% | 1016.4 hPa | 0 mm | - | - | - |
| 1777230249 | 15.56° C | 73% | 1016.4 hPa | 0 mm | - | - | - |
| 1777229621 | 15.56° C | 74% | 1016.2 hPa | 0 mm | - | - | - |
| 1777228998 | 16.11° C | 73% | 1016.1 hPa | 0 mm | - | - | - |
| 1777228375 | 16.11° C | 73% | 1015.9 hPa | 0 mm | - | - | - |
| 1777227761 | 16.67° C | 72% | 1015.9 hPa | 0 mm | - | - | - |
* Rain latest hour (hover to see other rain measurements)
** Current wind speed in m/s (hover to see current wind gust speed)